Погода в Карупано

Венесуэла     10°40′12″N   63°15′23″W
темп.,
°C
ветер,
м/с
пор.,
м/с
влажн.,
%
обл.,
%
осадки,
мм/ч
давл.,
гПа
погр.,
м
22 апреля, чт
чт2223:00+25вюв57864 0.0 1014343
02:00+24юв34876 0.0 1013180
05:00+24юв45883 0.0 1013201
08:00+25вюв46802 0.0 1015473
11:00+26св777719 0.0 1015576
14:00+26всв997716 0.1 1012578
17:00+26всв10117611 0.0 1011592
20:00+25в710810 0.0 1013444
23 апреля, пт
пт2323:00+25вюв68845 0.0 1014286
02:00+24юв45874 0.1 1013190
05:00+24юв45883 0.0 1013203
08:00+25вюв47815 0.0 1015447
11:00+27всв89755 0.0 1014505
14:00+27всв10117470 0.0 1011587
17:00+27всв10117960 0.0 1010551
20:00+26всв811855 0.0 1013462
24 апреля, сб
сб2423:00+25в69867 0.1 1014364
02:00+24вюв458854 0.3 1012235
05:00+24юв458914 0.1 1013248
08:00+25вюв46825 0.1 1015478
11:00+26всв887930 0.0 1015566
14:00+27св1011767 0.0 1012660
17:00+26всв911838 0.0 1011632
20:00+26в811855 0.0 1013536
25 апреля, вс
вс2523:00+25в710887 0.1 1014518
02:00+24вюв57898 0.3 1012408
05:00+24вюв348826 0.2 1012228
08:00+25вюв468314 0.3 1014461
11:00+27св997510 0.1 1014657
14:00+26всв9108051 0.1 1011529
17:00+26всв1012825 0.0 1010588
20:00+25в8128721 0.0 1012608
26 апреля, пн
пн2623:00+25в798712 0.1 1013483
02:00+24вюв568880 0.1 1011338
05:00+24юв34898 0.1 1011210
08:00+25вюв458331 0.1 1013396
11:00+26св988054 0.0 1013630
14:00+26св10118220 0.1 1010514
17:00+26всв10118159 0.0 1009625
20:00+25в811885 0.0 1011576